FW0984 Weather Reports


Display with metric or nautical units.
time (UTC)temp
F
wind
direction
speed
MPH
gust
MPH
rain 1hr
in
rain 24hr
in
rain mn
in
humidity
%
barometer
mb
20260504044534 49 117 0.0 0.0 0.00 0.00 0.00 68 1014.6
20260504043032 50 172 0.0 0.0 0.00 0.00 0.00 65 1014.6
20260504041533 50 110 0.0 0.0 0.00 0.00 0.00 65 1014.7
20260504040026 51 196 0.0 0.0 0.00 0.00 0.00 64 1014.9
20260504034526 52 196 0.0 0.0 0.00 0.00 0.00 63 1015.1
20260504033027 53 196 0.0 0.0 0.00 0.00 0.00 59 1015.2
20260504031525 54 196 0.0 0.0 0.00 0.00 0.00 60 1015.2
20260504030024 55 250 0.0 0.0 0.00 0.00 0.00 57 1015.4
20260504024524 56 250 0.0 0.0 0.00 0.00 0.00 52 1015.5
20260504023024 56 250 0.0 0.0 0.00 0.00 0.00 52 1015.5
20260504021522 56 250 0.0 0.0 0.00 0.00 0.00 51 1015.4
20260504020022 57 254 0.0 2.0 0.00 0.00 0.00 49 1015.4
20260504014527 57 254 1.0 2.0 0.00 0.00 0.00 47 1015.3
20260504013021 57 237 0.0 2.0 0.00 0.00 0.00 45 1015.0
20260504011521 57 253 0.0 0.0 0.00 0.00 0.00 45 1015.1
20260504010019 57 242 0.0 0.0 0.00 0.00 0.00 44 1015.1
20260504004522 57 259 0.0 0.0 0.00 0.00 0.00 44 1015.2
20260504003019 58 259 0.0 0.0 0.00 0.00 0.00 42 1015.0
20260504001519 58 303 0.0 2.0 0.00 0.00 0.00 43 1014.8
20260504000017 58 246 0.0 0.0 0.00 0.00 0.00 43 1014.7
20260503234517 58 237 0.0 2.0 0.00 0.00 0.00 43 1014.7
20260503233018 59 252 0.0 1.0 0.00 0.00 0.00 45 1015.0
20260503231512 59 252 0.0 2.0 0.00 0.00 0.00 42 1015.4
20260503230009 59 257 0.0 2.0 0.00 0.00 0.00 40 1015.9
20260503224508 59 254 0.0 2.0 0.00 0.00 0.00 42 1016.0
20260503223006 60 254 0.0 3.0 0.00 0.00 0.00 39 1016.3
20260503221505 60 248 0.0 4.0 0.00 0.00 0.00 44 1016.3
20260503220004 59 244 1.0 2.0 0.00 0.00 0.00 41 1016.5
20260503214507 59 246 0.0 0.0 0.00 0.00 0.00 45 1016.4
20260503213004 59 249 0.0 2.0 0.00 0.00 0.00 41 1016.4
20260503211500 59 245 0.0 2.0 0.00 0.00 0.00 45 1017.0
20260503204559 60 254 0.0 2.0 0.00 0.00 0.00 40 1017.6
20260503203059 60 235 0.0 2.0 0.00 0.00 0.00 39 1017.3
20260503201558 61 259 0.0 3.0 0.00 0.00 0.00 38 1017.4
20260503200058 62 251 1.0 6.0 0.00 0.00 0.00 37 1017.4
20260503194558 62 253 1.0 6.0 0.00 0.00 0.00 39 1017.7
20260503193049 61 241 3.0 8.0 0.00 0.00 0.00 38 1018.2
20260503191549 60 242 2.0 5.0 0.00 0.00 0.00 38 1018.4
20260503190044 60 323 1.0 6.0 0.00 0.00 0.00 40 1018.5
20260503184542 60 252 1.0 4.0 0.00 0.00 0.00 41 1018.9
20260503183141 61 256 1.0 3.0 0.00 0.00 0.00 37 1019.1
20260503181542 61 263 0.0 5.0 0.00 0.00 0.00 37 1019.3
20260503180045 61 259 1.0 5.0 0.00 0.00 0.00 35 1019.5
20260503174535 61 257 1.0 5.0 0.00 0.00 0.00 38 1019.6
20260503173037 61 261 0.0 4.0 0.00 0.00 0.00 37 1020.0
20260503171531 61 257 2.0 4.0 0.00 0.00 0.00 43 1020.3
20260503081558 31 26 0.0 0.0 0.00 0.00 0.00 91 1020.7